Total_Precipitation_Accumulation
1.56 1.71 1.79 1.82 1.79 1.68 1.69 1.66 1.55 1.33 1.17 1.01 0.89 0.78 0.78 0.85 1.15 1.09 0.93 0.85 0.73 0.64 0.57 0.53 0.50 0.48 0.51 0.61 0.70 0.80 0.86 0.84 0.83 0.82 0.78 0.72 0.69 0.67
1.52 1.64 1.65 1.67 1.69 1.63 1.58 1.65 1.59 1.39 1.20 1.05 0.92 0.85 0.94 0.92 1.09 0.98 1.05 1.12 0.84 0.69 0.63 0.61 0.54 0.47 0.40 0.36 0.36 0.41 0.46 0.49 0.55 0.59 0.59 0.57 0.58 0.59
1.03 1.14 1.35 1.54 1.60 1.59 1.61 1.63 1.63 1.52 1.30 1.18 0.97 0.93 1.07 1.08 1.07 1.02 1.09 1.12 0.90 0.76 0.62 0.57 0.55 0.49 0.46 0.39 0.33 0.30 0.31 0.32 0.36 0.39 0.45 0.45 0.44 0.46
0.84 0.85 0.95 1.18 1.33 1.44 1.50 1.52 1.58 1.58 1.45 1.40 1.29 1.05 1.02 1.08 1.18 1.26 1.20 1.16 1.12 1.06 0.91 0.71 0.61 0.55 0.50 0.44 0.37 0.30 0.27 0.27 0.28 0.29 0.33 0.40 0.44 0.45
0.79 0.81 0.86 0.96 1.11 1.19 1.30 1.40 1.48 1.60 1.58 1.41 1.42 1.34 1.15 1.13 1.18 1.24 1.30 1.38 1.28 1.20 1.24 1.07 0.86 0.73 0.65 0.58 0.49 0.39 0.34 0.32 0.32 0.34 0.35 0.37 0.40 0.42
0.77 0.84 0.86 0.86 0.97 1.19 1.32 1.39 1.41 1.51 1.62 1.56 1.47 1.43 1.29 1.21 1.21 1.23 1.36 1.45 1.44 1.25 1.16 1.12 1.07 0.93 0.79 0.69 0.60 0.51 0.45 0.41 0.38 0.38 0.39 0.41 0.39 0.39
0.66 0.68 0.76 0.83 0.85 1.00 1.16 1.39 1.40 1.49 1.56 1.62 1.52 1.36 1.26 1.18 1.13 1.13 1.23 1.42 1.45 1.43 1.37 1.19 1.07 0.92 0.81 0.74 0.69 0.64 0.56 0.50 0.47 0.48 0.49 0.49 0.48 0.46
0.67 0.69 0.69 0.70 0.72 0.75 0.78 1.03 1.22 1.33 1.41 1.43 1.46 1.32 1.21 1.15 1.22 1.20 1.15 1.22 1.32 1.34 1.23 1.29 1.26 1.09 0.95 0.82 0.84 0.86 0.79 0.71 0.61 0.56 0.55 0.56 0.58 0.59
0.61 0.70 0.74 0.72 0.77 0.86 0.81 0.85 0.94 1.01 1.11 1.22 1.26 1.20 1.15 1.11 1.17 1.20 1.17 1.12 1.04 1.12 1.12 1.18 1.24 1.14 1.02 0.90 0.88 0.82 0.79 0.75 0.68 0.61 0.57 0.55 0.57 0.59
0.61 0.62 0.73 0.79 0.84 0.98 0.97 1.05 0.98 0.87 0.85 0.90 1.02 1.06 1.02 1.11 1.18 1.32 1.36 1.22 1.13 1.15 1.12 1.06 1.05 0.99 0.92 0.92 0.91 0.76 0.69 0.68 0.67 0.63 0.58 0.54 0.53 0.54
0.58 0.61 0.73 0.82 0.95 1.04 1.09 1.12 1.02 0.92 0.94 1.01 1.07 1.11 1.13 1.20 1.25 1.30 1.32 1.28 1.21 1.20 1.09 0.96 0.90 0.90 0.90 0.86 0.83 0.83 0.76 0.70 0.66 0.64 0.61 0.59 0.60 0.65
0.62 0.63 0.84 0.85 0.92 0.96 1.01 1.12 1.13 1.00 0.92 0.93 0.98 1.01 1.01 1.10 1.25 1.26 1.34 1.37 1.24 1.18 1.09 0.94 0.90 0.98 1.04 0.93 0.79 0.72 0.72 0.77 0.76 0.71 0.68 0.67 0.69 0.67
0.57 0.62 0.59 0.70 0.72 0.81 0.91 0.98 1.17 1.05 0.98 0.99 0.98 0.91 0.87 0.93 1.04 1.17 1.28 1.33 1.25 1.08 0.99 0.95 0.94 0.96 0.92 0.86 0.80 0.74 0.69 0.69 0.71 0.70 0.71 0.74 0.77 0.74
0.39 0.51 0.51 0.57 0.62 0.69 0.70 0.86 1.02 0.98 0.94 1.01 1.00 0.93 0.86 0.84 0.86 0.92 1.04 1.10 1.06 1.02 0.98 0.90 0.86 0.85 0.81 0.72 0.70 0.74 0.74 0.69 0.69 0.69 0.70 0.79 0.82 0.86
0.24 0.39 0.47 0.53 0.52 0.52 0.63 0.80 0.84 0.90 1.02 0.98 0.99 0.93 0.86 0.82 0.75 0.77 0.86 0.93 0.90 0.86 0.85 0.84 0.87 0.85 0.81 0.71 0.61 0.59 0.67 0.70 0.69 0.70 0.72 0.72 0.69 0.73
0.22 0.35 0.47 0.54 0.52 0.51 0.57 0.69 0.75 0.87 1.00 0.92 0.89 0.84 0.77 0.77 0.74 0.73 0.76 0.81 0.84 0.81 0.78 0.75 0.86 0.99 0.95 0.87 0.81 0.72 0.68 0.68 0.67 0.73 0.77 0.76 0.75 0.73
0.30 0.47 0.61 0.62 0.60 0.55 0.59 0.68 0.67 0.64 0.73 0.72 0.74 0.74 0.72 0.70 0.66 0.61 0.62 0.64 0.66 0.65 0.64 0.63 0.62 0.68 0.76 0.79 0.81 0.77 0.79 0.80 0.80 0.85 0.85 0.79 0.72 0.71
0.49 0.68 0.78 0.84 0.81 0.72 0.68 0.67 0.61 0.59 0.59 0.61 0.67 0.66 0.62 0.65 0.64 0.58 0.57 0.58 0.59 0.57 0.54 0.49 0.48 0.54 0.61 0.63 0.54 0.53 0.57 0.59 0.64 0.72 0.78 0.78 0.70 0.65
0.78 0.83 0.84 0.87 0.86 0.76 0.65 0.59 0.48 0.42 0.45 0.50 0.51 0.51 0.51 0.51 0.54 0.53 0.52 0.50 0.48 0.46 0.43 0.40 0.40 0.42 0.50 0.52 0.46 0.38 0.42 0.47 0.52 0.57 0.60 0.59 0.55 0.54
0.82 0.84 0.91 0.89 0.83 0.68 0.53 0.45 0.35 0.32 0.34 0.35 0.34 0.30 0.32 0.35 0.39 0.43 0.45 0.44 0.40 0.38 0.38 0.38 0.39 0.41 0.44 0.47 0.43 0.35 0.34 0.42 0.48 0.50 0.50 0.51 0.50 0.55
0.47 0.52 0.56 0.56 0.50 0.42 0.34 0.30 0.25 0.22 0.22 0.24 0.25 0.23 0.24 0.24 0.24 0.28 0.34 0.39 0.40 0.37 0.36 0.35 0.37 0.40 0.40 0.42 0.40 0.33 0.30 0.36 0.41 0.41 0.42 0.48 0.51 0.52
0.21 0.23 0.24 0.24 0.23 0.23 0.22 0.22 0.23 0.24 0.22 0.21 0.22 0.22 0.22 0.21 0.19 0.20 0.23 0.26 0.30 0.33 0.34 0.35 0.36 0.37 0.36 0.39 0.37 0.32 0.27 0.26 0.33 0.43 0.45 0.44 0.42 0.40
0.16 0.18 0.19 0.19 0.19 0.20 0.22 0.23 0.24 0.25 0.24 0.22 0.20 0.18 0.18 0.18 0.18 0.20 0.21 0.22 0.24 0.27 0.29 0.30 0.34 0.36 0.37 0.36 0.35 0.33 0.30 0.27 0.26 0.31 0.39 0.52 0.48 0.38